When you browse on this site, cookies collect data to enhance your experience and personalize the content and advertising you see.
Visit our Privacy Policy to learn more. By continuing to use the site, you agree to this use of cookies and data.
  • en Suisse
  • Liste des pays
  • À 7 jours
  • Température de l'eau
  • Carte météo
  • Widgets météo
  • user-avatar
    Se connecter

    Météo par heure à Saurimo

    Ce jour, 21 Novembre, Jeudi

    Heure Température Précipitation Vent Pression Humidité
    00:00 +19°C° 0 mm 0 m/s 668 mmHg 92%
    01:00 +18°C° 0 mm 0 m/s 668 mmHg 93%
    02:00 +18°C° 0 mm 0 m/s 668 mmHg 94%
    03:00 +20°C° 0 mm 1 m/s 668 mmHg 95%
    04:00 +20°C° 0 mm 1 m/s 668 mmHg 95%
    05:00 +21°C° 0.2 mm 1 m/s 669 mmHg 94%
    06:00 +22°C° 0.2 mm 1 m/s 670 mmHg 92%
    07:00 +21°C° 0.2 mm 2 m/s 670 mmHg 91%
    08:00 +21°C° 1.6 mm 2 m/s 670 mmHg 92%
    09:00 +21°C° 1.6 mm 2 m/s 670 mmHg 94%
    10:00 +20°C° 1.6 mm 2 m/s 670 mmHg 95%
    11:00 +21°C° 0.7 mm 2 m/s 670 mmHg 92%
    12:00 +22°C° 0.7 mm 1 m/s 669 mmHg 90%
    13:00 +23°C° 0.7 mm 1 m/s 669 mmHg 87%
    14:00 +23°C° 0 mm 1 m/s 668 mmHg 83%
    15:00 +24°C° 0 mm 1 m/s 668 mmHg 79%
    16:00 +23°C° 0 mm 0 m/s 667 mmHg 76%
    17:00 +23°C° 0 mm 1 m/s 668 mmHg 82%
    18:00 +22°C° 0 mm 1 m/s 668 mmHg 88%
    19:00 +21°C° 0 mm 1 m/s 668 mmHg 94%
    20:00 +20°C° 0 mm 1 m/s 669 mmHg 95%
    21:00 +20°C° 0 mm 1 m/s 669 mmHg 96%
    22:00 +19°C° 0 mm 1 m/s 669 mmHg 97%
    23:00 +19°C° 0 mm 1 m/s 669 mmHg 97%

    Demain, 22 Novembre, Vendredi

    Heure Température Précipitation Vent Pression Humidité
    00:00 +19°C° 0 mm 1 m/s 668 mmHg 96%
    01:00 +19°C° 0 mm 1 m/s 668 mmHg 96%
    02:00 +18°C° 0 mm 1 m/s 668 mmHg 96%
    03:00 +18°C° 0 mm 1 m/s 668 mmHg 95%
    04:00 +18°C° 0 mm 1 m/s 668 mmHg 95%
    05:00 +19°C° 0 mm 1 m/s 668 mmHg 91%
    06:00 +21°C° 0 mm 1 m/s 669 mmHg 86%
    07:00 +22°C° 0 mm 1 m/s 670 mmHg 81%
    08:00 +24°C° 0 mm 1 m/s 670 mmHg 75%
    09:00 +25°C° 0 mm 0 m/s 670 mmHg 68%
    10:00 +28°C° 0 mm 0 m/s 670 mmHg 62%
    11:00 +29°C° 0 mm 0 m/s 670 mmHg 58%
    12:00 +30°C° 0 mm 0 m/s 670 mmHg 54%
    13:00 +31°C° 0 mm 0 m/s 669 mmHg 50%
    14:00 +31°C° 0 mm 0 m/s 669 mmHg 54%
    15:00 +30°C° 0 mm 0 m/s 668 mmHg 58%
    16:00 +29°C° 0 mm 0 m/s 667 mmHg 62%
    17:00 +29°C° 0 mm 1 m/s 667 mmHg 66%
    18:00 +26°C° 0 mm 1 m/s 667 mmHg 70%
    19:00 +24°C° 0 mm 1 m/s 668 mmHg 74%
    20:00 +23°C° 0.2 mm 1 m/s 668 mmHg 78%
    21:00 +22°C° 0.2 mm 1 m/s 668 mmHg 82%
    22:00 +22°C° 0.2 mm 1 m/s 669 mmHg 86%
    23:00 +21°C° 1 mm 1 m/s 668 mmHg 90%

    Après-demain, 23 Novembre, Samedi

    Heure Température Précipitation Vent Pression Humidité
    00:00 +21°C° 1 mm 1 m/s 668 mmHg 94%
    01:00 +20°C° 1 mm 1 m/s 668 mmHg 98%
    02:00 +20°C° 1.6 mm 1 m/s 668 mmHg 98%
    03:00 +21°C° 1.6 mm 1 m/s 668 mmHg 98%
    04:00 +20°C° 1.6 mm 2 m/s 669 mmHg 98%
    05:00 +21°C° 0.9 mm 1 m/s 669 mmHg 98%
    06:00 +21°C° 0.9 mm 1 m/s 670 mmHg 98%
    07:00 +19°C° 0.9 mm 0 m/s 670 mmHg 98%
    08:00 +21°C° 1.1 mm 1 m/s 670 mmHg 98%
    09:00 +21°C° 1.1 mm 1 m/s 670 mmHg 97%
    10:00 +20°C° 1.1 mm 2 m/s 670 mmHg 96%
    11:00 +21°C° 0.2 mm 2 m/s 670 mmHg 95%
    12:00 +21°C° 0.2 mm 2 m/s 670 mmHg 93%
    13:00 +23°C° 0.2 mm 2 m/s 669 mmHg 92%
    14:00 +23°C° 0.1 mm 2 m/s 669 mmHg 92%
    15:00 +23°C° 0.1 mm 2 m/s 668 mmHg 91%
    16:00 +23°C° 0.1 mm 2 m/s 668 mmHg 91%
    17:00 +22°C° 0 mm 1 m/s 668 mmHg 93%
    18:00 +21°C° 0 mm 1 m/s 668 mmHg 95%
    19:00 +20°C° 0 mm 1 m/s 669 mmHg 96%
    20:00 +20°C° 0 mm 1 m/s 669 mmHg 96%
    21:00 +20°C° 0 mm 1 m/s 669 mmHg 96%
    22:00 +20°C° 0 mm 1 m/s 670 mmHg 95%
    23:00 +20°C° 0 mm 1 m/s 669 mmHg 95%

    24 Novembre, Dimanche

    Heure Température Précipitation Vent Pression Humidité
    00:00 +20°C° 0 mm 1 m/s 669 mmHg 96%
    01:00 +19°C° 0 mm 1 m/s 669 mmHg 96%
    02:00 +19°C° 0 mm 1 m/s 668 mmHg 96%
    03:00 +19°C° 0 mm 1 m/s 668 mmHg 97%
    04:00 +19°C° 0 mm 1 m/s 668 mmHg 98%
    05:00 +19°C° 0 mm 1 m/s 669 mmHg 96%
    06:00 +20°C° 0 mm 1 m/s 669 mmHg 94%
    07:00 +20°C° 0 mm 1 m/s 670 mmHg 93%
    08:00 +21°C° 0.1 mm 1 m/s 670 mmHg 91%
    09:00 +19°C° 0.1 mm 0 m/s 671 mmHg 90%
    10:00 +20°C° 0.1 mm 0 m/s 671 mmHg 89%
    11:00 +19°C° 1.7 mm 0 m/s 670 mmHg 92%
    12:00 +19°C° 1.7 mm 0 m/s 670 mmHg 94%
    13:00 +18°C° 1.7 mm 0 m/s 669 mmHg 97%
    14:00 +21°C° 0.4 mm 1 m/s 669 mmHg 96%
    15:00 +21°C° 0.4 mm 1 m/s 668 mmHg 95%
    16:00 +20°C° 0.4 mm 2 m/s 668 mmHg 94%
    17:00 +21°C° 0 mm 1 m/s 668 mmHg 96%
    18:00 +18°C° 0 mm 0 m/s 668 mmHg 97%
    19:00 +18°C° 0 mm 0 m/s 668 mmHg 98%
    20:00 +18°C° 0 mm 0 m/s 669 mmHg 98%
    21:00 +18°C° 0 mm 0 m/s 669 mmHg 98%
    22:00 +20°C° 0 mm 1 m/s 670 mmHg 98%
    23:00 +17°C° 0 mm 0 m/s 670 mmHg 98%

    25 Novembre, Lundi

    Heure Température Précipitation Vent Pression Humidité
    00:00 +17°C° 0 mm 0 m/s 669 mmHg 98%
    01:00 +17°C° 0 mm 0 m/s 669 mmHg 98%
    02:00 +17°C° 0 mm 0 m/s 669 mmHg 98%
    03:00 +17°C° 0 mm 0 m/s 669 mmHg 98%
    04:00 +19°C° 0 mm 1 m/s 669 mmHg 98%
    05:00 +18°C° 0 mm 0 m/s 670 mmHg 96%
    06:00 +19°C° 0 mm 0 m/s 670 mmHg 94%
    07:00 +19°C° 0 mm 0 m/s 671 mmHg 92%
    08:00 +23°C° 0.2 mm 1 m/s 671 mmHg 87%
    09:00 +24°C° 0.2 mm 1 m/s 671 mmHg 82%
    10:00 +25°C° 0.2 mm 1 m/s 672 mmHg 77%
    11:00 +26°C° 0.7 mm 1 m/s 671 mmHg 74%
    12:00 +27°C° 0.7 mm 1 m/s 670 mmHg 71%
    13:00 +28°C° 0.7 mm 1 m/s 670 mmHg 68%
    14:00 +27°C° 0.3 mm 1 m/s 669 mmHg 71%
    15:00 +27°C° 0.3 mm 1 m/s 669 mmHg 74%
    16:00 +27°C° 0.3 mm 2 m/s 668 mmHg 77%
    17:00 +25°C° 0.9 mm 1 m/s 668 mmHg 83%
    18:00 +23°C° 0.9 mm 1 m/s 668 mmHg 89%
    19:00 +21°C° 0.9 mm 1 m/s 669 mmHg 95%
    20:00 +21°C° 0.6 mm 1 m/s 669 mmHg 95%
    21:00 +21°C° 0.6 mm 1 m/s 670 mmHg 95%
    22:00 +21°C° 0.6 mm 1 m/s 670 mmHg 95%
    23:00 +21°C° 0.1 mm 1 m/s 670 mmHg 96%

    26 Novembre, Mardi

    Heure Température Précipitation Vent Pression Humidité
    00:00 +21°C° 0.1 mm 1 m/s 669 mmHg 97%
    01:00 +20°C° 0.1 mm 1 m/s 669 mmHg 97%
    02:00 +20°C° 0.1 mm 1 m/s 669 mmHg 97%
    03:00 +20°C° 0.1 mm 1 m/s 669 mmHg 97%
    04:00 +20°C° 0.1 mm 1 m/s 669 mmHg 97%
    05:00 +21°C° 0 mm 1 m/s 669 mmHg 96%
    06:00 +21°C° 0 mm 1 m/s 670 mmHg 94%
    07:00 +21°C° 0 mm 1 m/s 670 mmHg 93%
    08:00 +23°C° 0.1 mm 1 m/s 670 mmHg 89%
    09:00 +24°C° 0.1 mm 1 m/s 671 mmHg 84%
    10:00 +25°C° 0.1 mm 2 m/s 671 mmHg 80%
    11:00 +26°C° 0.6 mm 1 m/s 670 mmHg 78%
    12:00 +26°C° 0.6 mm 1 m/s 669 mmHg 76%
    13:00 +27°C° 0.6 mm 1 m/s 668 mmHg 75%
    14:00 +27°C° 0.8 mm 1 m/s 668 mmHg 78%
    15:00 +26°C° 0.8 mm 1 m/s 668 mmHg 81%
    16:00 +24°C° 0.8 mm 0 m/s 668 mmHg 84%
    17:00 +25°C° 1.5 mm 1 m/s 668 mmHg 88%
    18:00 +23°C° 1.5 mm 1 m/s 668 mmHg 91%
    19:00 +22°C° 1.5 mm 1 m/s 668 mmHg 94%
    20:00 +21°C° 0.1 mm 1 m/s 669 mmHg 94%
    21:00 +21°C° 0.1 mm 1 m/s 669 mmHg 95%
    22:00 +21°C° 0.1 mm 1 m/s 669 mmHg 95%
    23:00 +21°C° 0 mm 1 m/s 669 mmHg 96%
    Voir plus